Airfield :
LOGIN :

Register | Disclaimer

   EN    FR    IT 

 










Legend :    VFR   Marginal VFR   IFR   Intensive IFR   Very Intensive IFR
Visi :
Ceiling :
>= 8 km
>= 3000ft
5 to 8 km
1000 to 3000 ft
1500m to 5 km
500 to 1000 ft
800 to 1500m
200 to 500 ft
< 800m
< 200 ft
Symbols :   Thunderstorms  Fog  Heavy snow  Heavy precipitations  Wind > 20 kt
SIGMETs :     Misc.  Thunderstorms  Icing  Turbulence  Mountain Waves  Volcanic Ashes







- Airport Elevation : 156 ft
- IATA code : LCC


LIBN - Lecce Galatine (military)

CURRENT METAR :
  • 122255Z 09004KT 9999 FEW040 06/04 Q1019 RMK BKN BKN120 VIS MIN 9999 WIND THR14 10003KT WIND THR32 09003KT BLU

EXPIRED METARs :
  • 122155Z 09004KT 9999 FEW040 06/05 Q1019 RMK BKN BKN120 VIS MIN 9999 WIND THR14 11003KT WIND THR32 08004KT BLU
  • 122055Z 11003KT 9999 SCT040 05/05 Q1019 RMK BKN BKN120 VIS MIN 9999 WIND THR14 13002KT WIND THR32 11002KT BLU

TAF TAF LIBN
Valid from the 12 at 15:00 until the 13 at 00:00 UTC


121400Z 1215/1224 VRB03KT 9999 FEW030
No reported NOTAMs for that airfield.



MET'MAP, your aeronautical weather chart ! - Copyright ORBIFLY December 2007 - Disclaimer

ORBIFLY MET'MAP TEAM :

Programming & Development : Alexandra Zaïnal
Concept & Development : Baudouin d'Aumeries
Co-Development & Prog : Marc-Olivier Méhu
Technical & hardware support : Manuel Goepfert

Contact : metmap@orbifly.com




SOURCES & CREDITS :

   NOAA